Find DSCS III A-1

NORAD ID: 13637 Int'l Des: 1982-106 Owner: AFSD/DCA Country: US operational
HEOCIRCULAR

Live Position

Loading 3D Globe...

About DSCS III A-1

Description loading...

Upcoming Passes

Passes for default location (London). Set your location on the main map for personalized predictions.

Altitude History

Loading altitude history...

Two-Line Element Set

1 13637U 82106B 26106.09438052 -.00000052 00000-0 00000-0 0 9991
2 13637 12.4797 334.2332 0016324 199.3919 336.1812 0.97826642 64704
Epoch: Apr 16, 2026 • Age: 24 hours

Current Status

Altitude 36430.6 km
Velocity 3.05 km/s
Sub-Earth Point 4.00°N, 96.75°W
Launch Date Oct 30, 1982
Age 43.4 years
Type other

Technical Details

Classification Payload
Mass 1170.00 kg
Dry Mass 893.00 kg
Total Mass 1170.00 kg
Length 2.10 m
Diameter 1.90 m
Span 9.50 m
Shape Box + 2 Pan
Manufacturer GEVF
Bus Type DSCS III
Phase Status In Orbit
Owner/State AFSD/DCA/US

Most Searched